EW4964 Weather Reports


time (UTC)temp
C
wind
direction
speed
KPH
gust
KPH
rain 1hr
cm
rain 24hr
cm
rain mn
cm
humidity
%
barometer
mb
20260506160006 19 191 14.5 22.5 0.00 0.00 0.00 27 1009.0
20260506154507 19 188 11.3 24.1 0.00 0.00 0.00 27 1009.4
20260506153007 18 207 12.9 22.5 0.00 0.00 0.00 28 1009.5
20260506151507 20 164 11.3 24.1 0.00 0.00 0.00 27 1009.4
20260506150007 20 215 11.3 17.7 0.00 0.00 0.00 29 1009.7
20260506144507 19 213 11.3 17.7 0.00 0.00 0.00 28 1010.0
20260506143007 18 193 11.3 22.5 0.00 0.00 0.00 28 1010.2
20260506141506 19 174 9.7 19.3 0.00 0.00 0.00 29 1010.2
20260506134506 18 256 11.3 30.6 0.00 0.00 0.00 28 1010.3
20260506133006 18 196 8.0 12.9 0.00 0.00 0.00 27 1010.6
20260506131507 18 237 9.7 17.7 0.00 0.00 0.00 27 1010.6
20260506130006 18 249 9.7 17.7 0.00 0.00 0.00 27 1010.9
20260506124507 17 228 8.0 17.7 0.00 0.00 0.00 28 1011.1
20260506123007 18 276 6.4 9.7 0.00 0.00 0.00 28 1011.2
20260506121507 18 286 6.4 16.1 0.00 0.00 0.00 28 1011.2
20260506120006 19 248 8.0 16.1 0.00 0.00 0.00 27 1011.4
20260506114506 19 256 6.4 14.5 0.00 0.00 0.00 27 1011.3
20260506113006 19 299 4.8 9.7 0.00 0.00 0.00 29 1011.4
20260506111506 19 296 6.4 16.1 0.00 0.00 0.00 27 1011.6
20260506104506 19 269 6.4 12.9 0.00 0.00 0.00 28 1011.9
20260506101506 18 276 8.0 14.5 0.00 0.00 0.00 31 1011.9
20260506100006 17 291 6.4 12.9 0.00 0.00 0.00 31 1012.0
20260506094506 17 272 6.4 17.7 0.00 0.00 0.00 31 1012.1
20260506091506 17 270 8.0 16.1 0.00 0.00 0.00 32 1011.9
20260506090006 16 277 6.4 14.5 0.00 0.00 0.00 35 1011.9
20260506084506 15 343 9.7 17.7 0.00 0.00 0.00 37 1012.1
20260506073006 13 292 8.0 17.7 0.00 0.00 0.00 41 1011.8
20260506071505 13 335 8.0 16.1 0.00 0.00 0.00 42 1011.6
20260506061505 12 328 6.4 22.5 0.00 0.00 0.00 46 1011.6
20260506044505 10 339 8.0 12.9 0.00 0.00 0.00 72 1011.1
20260506043005 10 342 4.8 9.7 0.00 0.00 0.00 72 1010.8
20260506040006 10 1 4.8 8.0 0.00 0.00 0.00 69 1010.7
20260506031505 10 1 3.2 11.3 0.00 0.00 0.00 64 1010.7
20260506030005 10 1 3.2 6.4 0.00 0.00 0.00 62 1010.6
20260506024505 10 1 1.6 4.8 0.00 0.00 0.00 61 1010.5
20260506023004 10 1 1.6 3.2 0.00 0.00 0.00 61 1010.4
20260506020005 11 1 3.2 6.4 0.00 0.00 0.00 61 1010.3
20260506014505 11 358 4.8 9.7 0.00 0.00 0.00 58 1010.1
20260506010005 11 1 3.2 8.0 0.00 0.00 0.00 54 1010.4
20260506004505 11 1 4.8 12.9 0.00 0.00 0.00 51 1010.1
20260506000004 11 327 3.2 6.4 0.00 0.00 0.00 44 1009.8
20260505234505 11 272 3.2 8.0 0.00 0.00 0.00 43 1010.3
20260505233004 11 316 3.2 6.4 0.00 0.00 0.00 41 1009.9
20260505230008 11 240 4.8 17.7 0.00 0.00 0.00 39 1009.8
20260505224507 11 245 6.4 12.9 0.00 0.00 0.00 38 1009.8
20260505220010 11 222 9.7 19.3 0.00 0.00 0.00 36 1009.4
20260505214507 12 247 11.3 17.7 0.00 0.00 0.00 36 1009.5
20260505213008 12 262 9.7 19.3 0.00 0.00 0.00 35 1009.5
20260505211507 12 209 9.7 16.1 0.00 0.00 0.00 35 1009.4
20260505210008 12 208 11.3 20.9 0.00 0.00 0.00 34 1009.7
20260505204507 12 188 11.3 17.7 0.00 0.00 0.00 34 1009.8
20260505203008 13 144 11.3 20.9 0.00 0.00 0.00 34 1009.9
20260505200007 13 209 9.7 17.7 0.00 0.00 0.00 33 1010.0
20260505194507 13 225 11.3 17.7 0.00 0.00 0.00 33 1010.0
20260505193007 14 165 9.7 17.7 0.00 0.00 0.00 33 1009.8
20260505191507 14 219 8.0 16.1 0.00 0.00 0.00 32 1009.8
20260505190007 15 204 8.0 17.7 0.00 0.00 0.00 32 1009.6
20260505183007 16 217 8.0 17.7 0.00 0.00 0.00 31 1009.8
20260505181507 16 166 9.7 17.7 0.00 0.00 0.00 27 1009.9
20260505180007 17 224 4.8 16.1 0.00 0.00 0.00 26 1009.9
20260505174507 17 225 4.8 11.3 0.00 0.00 0.00 25 1009.7
20260505173007 17 225 3.2 11.3 0.00 0.00 0.00 23 1009.7
20260505171507 18 225 3.2 6.4 0.00 0.00 0.00 23 1009.7
20260505170007 18 225 4.8 6.4 0.00 0.00 0.00 22 1009.8
20260505164507 20 166 3.2 8.0 0.00 0.00 0.00 22 1009.8
20260505163008 21 172 4.8 11.3 0.00 0.00 0.00 22 1010.2
20260505161507 22 190 6.4 24.1 0.00 0.00 0.00 21 1010.3